Change the Weather History Date:

Saturday, August 23, 2014

  Actual Average (KITH) Record (KITH)
Temperature  
Mean Temperature 68 °F -  
Max Temperature 72 °F 77 °F 94 °F (1936)
Min Temperature 61 °F 52 °F 38 °F (1973)
Cooling Degree Days 2    
Growing Degree Days 18 (Base 50)    
Moisture  
Dew Point 63 °F    
Average Humidity 86    
Maximum Humidity 97    
Minimum Humidity 75    
Precipitation  
Precipitation 0.00 in - - ()
Sea Level Pressure  
Sea Level Pressure 30.06 in    
Wind  
Wind Speed 3 mph (SE)    
Max Wind Speed 9 mph    
Max Gust Speed -    
Visibility 8 miles    
Events      
Averages and records for this station are not official NWS values.
T = Trace of Precipitation, MM = Missing Value Source: NWS Daily Summary

Daily Weather History Graph

Daily Weather History Graph

Search for Another Location

Airport or City:

Trip Planner

Search our weather history database for the weather conditions in past years. The results will help you decide how hot, cold, wet, or windy it might be!

Date:

Astronomy

Aug. 23, 2014 Rise Set
Actual Time 6:23 AM EDT 7:57 PM EDT
Civil Twilight 5:53 AM EDT 8:27 PM EDT
Nautical Twilight 5:17 AM EDT 9:02 PM EDT
Astronomical Twilight 4:39 AM EDT 9:41 PM EDT
Moon 4:36 AM EDT (8/23) 6:41 PM EDT (8/23)
Length of Visible Light 14h 33m
Length of Day
13h 34m
Waning Crescent, 3% of the Moon is Illuminated
Aug 23
Waning Crescent
Aug 25
New
Sep 2
First Quarter
Sep 8
Full
Sep 15
Last Quarter

Hourly Weather History & Observations

Time (EDT) Temp. Dew Point Humidity Pressure Visibility Wind Dir Wind Speed Gust Speed Precip Events Conditions
12:19 AM 66.9 °F 66.0 °F 97% 30.02 in 5.0 mi Calm Calm - N/A   Overcast
12:53 AM 66.9 °F 66.0 °F 97% 30.01 in 2.5 mi Calm Calm - N/A   Overcast
1:22 AM 66.9 °F 66.0 °F 97% 30.02 in 3.0 mi Calm Calm - N/A   Overcast
1:53 AM 66.9 °F 66.0 °F 97% 30.00 in 3.0 mi Calm Calm - N/A   Overcast
2:16 AM 66.9 °F 66.0 °F 97% 30.02 in 2.5 mi NE 3.5 mph - N/A   Overcast
2:27 AM 66.9 °F 66.0 °F 97% 30.02 in 3.0 mi Calm Calm - N/A   Overcast
2:53 AM 68.0 °F 66.0 °F 93% 30.01 in 3.0 mi Calm Calm - N/A   Overcast
3:53 AM 68.0 °F 66.0 °F 93% 30.00 in 4.0 mi Calm Calm - N/A   Overcast
4:05 AM 68.0 °F 66.0 °F 93% 30.02 in 4.0 mi Calm Calm - N/A   Overcast
4:12 AM 68.0 °F 66.0 °F 93% 30.02 in 4.0 mi Calm Calm - N/A   Overcast
5:03 AM 66.9 °F 64.9 °F 93% 30.02 in 7.0 mi ESE 4.6 mph - N/A   Overcast
5:24 AM 66.9 °F 64.9 °F 93% 30.02 in 7.0 mi Calm Calm - N/A   Overcast
5:42 AM 66.9 °F 64.0 °F 90% 30.03 in 7.0 mi Calm Calm - N/A   Mostly Cloudy
5:53 AM 66.9 °F 64.9 °F 93% 30.01 in 6.0 mi Calm Calm - N/A   Overcast
6:29 AM 66.9 °F 64.0 °F 90% 30.04 in 9.0 mi Calm Calm - N/A   Overcast
6:36 AM 66.9 °F 64.0 °F 90% 30.04 in 8.0 mi Calm Calm - N/A   Overcast
8:53 AM 66.9 °F 63.0 °F 87% 30.06 in 10.0 mi SE 8.1 mph - N/A   Overcast
9:53 AM 69.1 °F 63.0 °F 81% 30.05 in 10.0 mi SE 5.8 mph - N/A   Overcast
10:34 AM 69.1 °F 63.0 °F 81% 30.07 in 10.0 mi SE 6.9 mph - N/A   Overcast
10:53 AM 69.1 °F 63.0 °F 81% 30.06 in 10.0 mi SE 9.2 mph - N/A   Overcast
11:53 AM 71.1 °F 64.0 °F 78% 30.07 in 10.0 mi SE 9.2 mph - N/A   Overcast
12:53 PM 70.0 °F 62.1 °F 76% 30.07 in 10.0 mi SE 9.2 mph - N/A   Overcast
1:53 PM 70.0 °F 62.1 °F 76% 30.08 in 10.0 mi SSE 8.1 mph - N/A   Overcast
2:48 PM 69.8 °F 62.6 °F 78% 30.10 in 10.0 mi SE 6.9 mph - N/A   Overcast
2:53 PM 71.1 °F 63.0 °F 75% 30.09 in 10.0 mi SE 8.1 mph - N/A   Overcast
3:19 PM 70.0 °F 62.1 °F 76% 30.11 in 10.0 mi SE 9.2 mph - N/A   Overcast
3:53 PM 71.1 °F 63.0 °F 75% 30.09 in 10.0 mi SE 8.1 mph - N/A   Overcast
4:28 PM 70.0 °F 62.1 °F 76% 30.11 in 10.0 mi ESE 6.9 mph - N/A   Overcast
4:37 PM 70.0 °F 62.1 °F 76% 30.11 in 10.0 mi ESE 8.1 mph - N/A   Overcast
5:04 PM 69.1 °F 61.0 °F 75% 30.12 in 10.0 mi SE 8.1 mph - N/A   Overcast
5:53 PM 69.1 °F 61.0 °F 75% 30.10 in 10.0 mi SE 9.2 mph - N/A   Overcast
6:53 PM 68.0 °F 61.0 °F 78% 30.11 in 10.0 mi SE 5.8 mph - N/A   Overcast
7:53 PM 68.0 °F 62.1 °F 81% 30.12 in 10.0 mi Calm Calm - N/A   Overcast
8:53 PM 66.0 °F 60.1 °F 81% 30.12 in 10.0 mi ESE 3.5 mph - N/A   Overcast
9:53 PM 66.0 °F 61.0 °F 84% 30.13 in 10.0 mi Calm Calm - N/A   Overcast
10:53 PM 64.9 °F 61.0 °F 87% 30.14 in 10.0 mi Calm Calm - N/A   Mostly Cloudy
11:53 PM 61.0 °F 59.0 °F 93% 30.14 in 10.0 mi ESE 3.5 mph - N/A   Clear